Time,TemperatureF,DewpointF,PressureIn,WindDirection,WindDirectionDegrees,WindSpeedMPH,WindSpeedGustMPH,Humidity,HourlyPrecipIn,Conditions,Clouds,dailyrainin,SoftwareType,DateUTC
2013-05-16 07:53:00,63.0,62.0,29.93,SSE,163,0.0,-999.0,98,-99.99,,,-99.99,,2013-05-16 12:53:00,
2013-05-16 08:04:00,63.0,62.0,29.93,SSE,163,0.0,-999.0,98,-99.99,,,-99.99,,2013-05-16 13:04:00,
2013-05-16 08:12:00,63.0,62.0,29.93,SSE,163,0.0,-999.0,98,-99.99,,,-99.99,,2013-05-16 13:12:00,
2013-05-16 08:26:00,64.0,63.0,29.94,SSE,163,0.0,-999.0,96,-99.99,,,-99.99,,2013-05-16 13:26:00,
2013-05-16 08:35:00,64.0,63.0,29.94,SSE,163,0.0,-999.0,96,-99.99,,,-99.99,,2013-05-16 13:35:00,
2013-05-16 08:44:00,64.0,63.0,29.94,SSE,163,0.0,-999.0,96,-99.99,,,-99.99,,2013-05-16 13:44:00,
2013-05-16 08:55:00,67.0,63.0,29.96,SSE,147,3.0,-999.0,88,-99.99,,,-99.99,,2013-05-16 13:55:00,
2013-05-16 09:05:00,67.0,63.0,29.96,SSE,147,3.0,-999.0,88,-99.99,,,-99.99,,2013-05-16 14:05:00,
2013-05-16 09:16:00,67.0,63.0,29.96,SSE,147,3.0,-999.0,88,-99.99,,,-99.99,,2013-05-16 14:16:00,
2013-05-16 09:23:00,68.0,62.0,29.95,SE,138,3.0,-999.0,82,-99.99,,,-99.99,,2013-05-16 14:23:00,
2013-05-16 09:37:00,68.0,62.0,29.95,SE,138,3.0,-999.0,82,-99.99,,,-99.99,,2013-05-16 14:37:00,
2013-05-16 09:47:00,68.0,62.0,29.95,SE,138,3.0,-999.0,82,-99.99,,,-99.99,,2013-05-16 14:47:00,
2013-05-16 09:56:00,68.0,62.0,29.96,SE,140,4.0,-999.0,81,-99.99,,,-99.99,,2013-05-16 14:56:00,
2013-05-16 10:08:00,68.0,62.0,29.96,SE,140,4.0,-999.0,81,-99.99,,,-99.99,,2013-05-16 15:08:00,
2013-05-16 10:17:00,68.0,62.0,29.96,SE,140,4.0,-999.0,81,-99.99,,,-99.99,,2013-05-16 15:17:00,
2013-05-16 10:28:00,66.0,61.0,29.96,SSE,163,2.0,-999.0,84,-99.99,,,-99.99,,2013-05-16 15:28:00,
2013-05-16 10:40:00,66.0,61.0,29.96,SSE,163,2.0,-999.0,84,-99.99,,,-99.99,,2013-05-16 15:40:00,
2013-05-16 10:50:00,66.0,61.0,29.96,SE,144,3.0,-999.0,84,-99.99,,,-99.99,,2013-05-16 15:50:00,
2013-05-16 11:00:00,66.0,61.0,29.96,SE,144,3.0,-999.0,84,-99.99,,,-99.99,,2013-05-16 16:00:00,
2013-05-16 11:09:00,66.0,61.0,29.96,SE,144,3.0,-999.0,84,-99.99,,,-99.99,,2013-05-16 16:09:00,
2013-05-16 11:20:00,66.0,61.0,29.96,SE,144,3.0,-999.0,84,-99.99,,,-99.99,,2013-05-16 16:20:00,
2013-05-16 11:30:00,67.0,61.0,29.95,SE,131,4.0,-999.0,81,-99.99,,,-99.99,,2013-05-16 16:30:00,
2013-05-16 11:40:00,67.0,-99.9,29.95,SE,131,4.0,-999.0,81,-99.99,,,-99.99,,2013-05-16 16:40:00,
2013-05-16 11:51:00,67.0,61.0,29.95,SE,131,4.0,-999.0,81,-99.99,,,-99.99,,2013-05-16 16:51:00,
2013-05-16 12:01:00,68.0,61.0,29.94,SSE,155,3.0,-999.0,79,-99.99,,,-99.99,,2013-05-16 17:01:00,
2013-05-16 12:10:00,68.0,61.0,29.94,SSE,155,3.0,-999.0,79,-99.99,,,-99.99,,2013-05-16 17:10:00,
2013-05-16 12:20:00,68.0,61.0,29.94,SSE,155,3.0,-999.0,79,-99.99,,,-99.99,,2013-05-16 17:20:00,
2013-05-16 12:30:00,68.0,61.0,29.94,ESE,120,4.0,-999.0,77,-99.99,,,-99.99,,2013-05-16 17:30:00,
2013-05-16 12:40:00,68.0,61.0,29.94,ESE,120,4.0,-999.0,77,-99.99,,,-99.99,,2013-05-16 17:40:00,
2013-05-16 12:50:00,-999.0,-99.9,29.93,SSE,150,5.0,-999.0,76,-99.99,,,-99.99,,2013-05-16 17:50:00,
2013-05-16 13:00:00,-999.0,-99.9,29.93,SSE,150,5.0,-999.0,76,-99.99,,,-99.99,,2013-05-16 18:00:00,
2013-05-16 13:10:00,68.0,60.0,29.93,SSE,150,5.0,-999.0,76,-99.99,,,-99.99,,2013-05-16 18:10:00,
2013-05-16 13:20:00,68.0,60.0,29.93,SSE,150,5.0,-999.0,76,-99.99,,,-99.99,,2013-05-16 18:20:00,
2013-05-16 13:30:00,-999.0,-99.9,29.93,SE,146,6.0,-999.0,76,-99.99,,,-99.99,,2013-05-16 18:30:00,
2013-05-16 13:40:00,-999.0,-99.9,29.93,SE,146,6.0,-999.0,76,-99.99,,,-99.99,,2013-05-16 18:40:00,
2013-05-16 13:50:00,-999.0,-99.9,29.93,SE,146,6.0,-999.0,76,-99.99,,,-99.99,,2013-05-16 18:50:00,
2013-05-16 14:00:00,-999.0,-99.9,29.93,SE,140,5.0,-999.0,74,-99.99,,,-99.99,,2013-05-16 19:00:00,
2013-05-16 14:10:00,70.0,61.0,29.93,SE,140,5.0,-999.0,74,-99.99,,,-99.99,,2013-05-16 19:10:00,
2013-05-16 14:20:00,70.0,61.0,29.93,SE,140,5.0,-999.0,74,-99.99,,,-99.99,,2013-05-16 19:20:00,
2013-05-16 14:30:00,69.0,60.0,29.93,SE,127,6.0,-999.0,74,-99.99,,,-99.99,,2013-05-16 19:30:00,
2013-05-16 14:40:00,69.0,-99.9,29.93,SE,127,6.0,-999.0,74,-99.99,,,-99.99,,2013-05-16 19:40:00,
2013-05-16 14:51:00,-999.0,-99.9,29.93,SE,127,6.0,-999.0,74,-99.99,,,-99.99,,2013-05-16 19:51:00,
2013-05-16 15:00:00,-999.0,-99.9,29.94,SSE,162,7.0,-999.0,76,-99.99,,,-99.99,,2013-05-16 20:00:00,
2013-05-16 15:10:00,-999.0,-99.9,29.94,SSE,162,7.0,-999.0,76,-99.99,,,-99.99,,2013-05-16 20:10:00,
2013-05-16 15:20:00,68.0,-99.9,29.93,South,178,4.0,-999.0,77,-99.99,,,-99.99,,2013-05-16 20:20:00,
2013-05-16 15:30:00,68.0,61.0,29.93,South,178,4.0,-999.0,77,-99.99,,,-99.99,,2013-05-16 20:30:00,
2013-05-16 15:40:00,-999.0,-99.9,29.93,South,178,4.0,-999.0,77,-99.99,,,-99.99,,2013-05-16 20:40:00,
2013-05-16 15:51:00,66.0,62.0,29.91,South,186,8.0,-999.0,86,-99.99,,,-99.99,,2013-05-16 20:51:00,
2013-05-16 16:00:00,66.0,-99.9,29.91,South,186,8.0,-999.0,86,-99.99,,,-99.99,,2013-05-16 21:00:00,
2013-05-16 16:10:00,66.0,-99.9,29.91,South,186,8.0,-999.0,86,-99.99,,,-99.99,,2013-05-16 21:10:00,
2013-05-16 16:20:00,66.0,-99.9,29.91,South,186,8.0,-999.0,86,-99.99,,,-99.99,,2013-05-16 21:20:00,
2013-05-16 16:29:00,66.0,63.0,29.91,SSE,148,6.0,-999.0,89,-99.99,,,-99.99,,2013-05-16 21:29:00,
2013-05-16 16:38:00,66.0,63.0,29.91,SSE,148,6.0,-999.0,89,-99.99,,,-99.99,,2013-05-16 21:38:00,
2013-05-16 16:50:00,66.0,-99.9,29.91,SSE,148,6.0,-999.0,89,-99.99,,,-99.99,,2013-05-16 21:50:00,
2013-05-16 17:00:00,-999.0,-99.9,29.89,South,183,4.0,-999.0,85,-99.99,,,-99.99,,2013-05-16 22:00:00,
2013-05-16 17:08:00,67.0,62.0,29.89,South,183,4.0,-999.0,85,-99.99,,,-99.99,,2013-05-16 22:08:00,
2013-05-16 17:21:00,67.0,62.0,29.89,South,183,4.0,-999.0,85,-99.99,,,-99.99,,2013-05-16 22:21:00,
2013-05-16 17:30:00,67.0,62.0,29.89,SE,137,5.0,-999.0,83,-99.99,,,-99.99,,2013-05-16 22:30:00,
2013-05-16 17:40:00,67.0,62.0,29.89,SE,137,5.0,-999.0,83,-99.99,,,-99.99,,2013-05-16 22:40:00,
2013-05-16 17:51:00,67.0,62.0,29.89,SE,137,5.0,-999.0,83,-99.99,,,-99.99,,2013-05-16 22:51:00,
2013-05-16 18:01:00,67.0,60.0,29.88,South,183,6.0,-999.0,78,-99.99,,,-99.99,,2013-05-16 23:01:00,
2013-05-16 18:06:00,67.0,60.0,29.88,South,183,6.0,-999.0,78,-99.99,,,-99.99,,2013-05-16 23:06:00,
2013-05-16 18:16:00,66.0,59.0,29.88,SE,140,6.0,-999.0,77,-99.99,,,-99.99,,2013-05-16 23:16:00,
2013-05-16 18:24:00,66.0,59.0,29.88,SE,140,6.0,-999.0,77,-99.99,,,-99.99,,2013-05-16 23:24:00,
2013-05-16 18:35:00,66.0,59.0,29.88,SE,140,6.0,-999.0,77,-99.99,,,-99.99,,2013-05-16 23:35:00,
2013-05-16 18:45:00,66.0,59.0,29.88,SE,140,6.0,-999.0,77,-99.99,,,-99.99,,2013-05-16 23:45:00,
2013-05-16 18:54:00,65.0,58.0,29.88,SE,140,6.0,-999.0,79,-99.99,,,-99.99,,2013-05-16 23:54:00,
2013-05-16 19:02:00,65.0,58.0,29.88,SE,140,6.0,-999.0,79,-99.99,,,-99.99,,2013-05-17 00:02:00,
2013-05-16 19:13:00,65.0,58.0,29.88,SE,140,6.0,-999.0,79,-99.99,,,-99.99,,2013-05-17 00:13:00,
2013-05-16 19:22:00,64.0,58.0,29.89,SSE,154,6.0,-999.0,82,-99.99,,,-99.99,,2013-05-17 00:22:00,
2013-05-16 19:30:00,64.0,59.0,29.88,ESE,121,3.0,-999.0,84,-99.99,,,-99.99,,2013-05-17 00:30:00,
2013-05-16 19:33:00,64.0,58.0,29.89,SSE,154,6.0,-999.0,82,-99.99,,,-99.99,,2013-05-17 00:33:00,
2013-05-16 19:44:00,64.0,58.0,29.89,SSE,154,6.0,-999.0,82,-99.99,,,-99.99,,2013-05-17 00:44:00,
2013-05-16 19:53:00,64.0,59.0,29.88,ESE,121,3.0,-999.0,84,-99.99,,,-99.99,,2013-05-17 00:53:00,
2013-05-16 20:03:00,64.0,59.0,29.88,ESE,121,3.0,-999.0,84,-99.99,,,-99.99,,2013-05-17 01:03:00,
2013-05-16 20:12:00,64.0,59.0,29.88,ESE,121,3.0,-999.0,84,-99.99,,,-99.99,,2013-05-17 01:12:00,
2013-05-16 20:23:00,64.0,59.0,29.88,ESE,121,3.0,-999.0,84,-99.99,,,-99.99,,2013-05-17 01:23:00,